Location: Newark
(21.1200°N, 73.4000°E)
Time: 23:09:56
(UTC+00:00)

Courier 1B Rocket - Visible Passes

Search period start: 20 January 2020 00:00
Search period end: 30 January 2020 00:00
Orbit: 920 x 1202 km, 28.2° (Epoch: 20 January)

Date Brightness Start Highest point End Pass type
(mag) Time Alt. Az. Time Alt. Az. Time Alt. Az.
20 Jan 5.3 14:21:23 10° WNW 14:27:30 59° SSW 14:31:00 27° SE visible
20 Jan 7.6 16:16:35 10° WSW 16:17:25 12° WSW 16:17:25 12° WSW visible
21 Jan 5.0 13:20:18 10° WNW 13:26:32 82° SSW 13:32:52 10° ESE visible
21 Jan 6.5 15:14:36 10° W 15:19:44 27° SSW 15:20:57 25° S visible
22 Jan 6.0 14:13:04 10° W 14:18:49 39° SSW 14:24:35 10° SE visible
23 Jan 5.5 13:11:46 10° WNW 13:17:53 57° SSW 13:24:01 10° SE visible
23 Jan 7.2 15:07:14 10° WSW 15:11:00 16° SSW 15:14:46 10° S visible
24 Jan 6.8 14:05:04 10° W 14:10:05 25° SSW 14:15:07 10° SSE visible
26 Jan 7.4 13:57:45 10° WSW 14:01:19 16° SSW 14:04:53 10° S visible
29 Jan 7.7 01:23:14 10° SSW 01:28:59 22° SSE 01:34:41 10° E visible
